GW1060 Weather Reports


Display with metric or nautical units.
time (UTC)temp
F
wind
direction
speed
MPH
gust
MPH
rain 1hr
in
rain 24hr
in
rain mn
in
humidity
%
barometer
mb
20260505113756 55 274 0.0 0.0 0.00 0.00 0.00 88 1011.5
20260505113521 54 247 1.0 2.0 0.00 0.00 0.00 89 1011.9
20260505113253 54 237 2.0 2.0 0.00 0.00 0.00 89 1011.7
20260505112748 54 258 1.0 1.0 0.00 0.00 0.00 89 1011.7
20260505112529 54 0.0 0.0 0.00 0.00 0.00 89 1011.7
20260505112247 54 269 0.0 0.0 0.00 0.00 0.00 89 1011.4
20260505111747 54 283 0.0 1.0 0.00 0.00 0.00 89 1011.5
20260505111601 53 303 0.0 2.0 0.00 0.00 0.00 89 1011.9
20260505111243 53 285 0.0 0.0 0.00 0.00 0.00 89 1011.5
20260505110739 53 261 0.0 0.0 0.00 0.00 0.00 89 1012.0
20260505110549 52 248 0.0 3.0 0.00 0.00 0.00 90 1012.2
20260505110237 52 223 3.0 5.0 0.00 0.00 0.00 90 1012.1
20260505102212 48 264 0.0 0.0 0.00 0.00 0.00 93 1011.9
20260505101711 48 265 0.0 0.0 0.00 0.00 0.00 93 1011.8
20260505101521 48 0.0 0.0 0.00 0.00 0.00 93 1011.9
20260505101206 48 260 0.0 0.0 0.00 0.00 0.00 93 1011.5
20260505100703 48 261 0.0 0.0 0.00 0.00 0.00 93 1011.4
20260505100529 48 0.0 0.0 0.00 0.00 0.00 93 1011.8
20260505100200 48 257 0.0 0.0 0.00 0.00 0.00 93 1011.4
20260505095655 48 263 0.0 0.0 0.00 0.00 0.00 92 1011.4
20260505095541 48 0.0 0.0 0.00 0.00 0.00 92 1011.6
20260505095153 48 262 0.0 0.0 0.00 0.00 0.00 92 1011.3
20260505094649 48 273 0.0 0.0 0.00 0.00 0.00 92 1011.3
20260505094529 48 285 0.0 1.0 0.00 0.00 0.00 92 1011.4
20260505094145 48 287 1.0 1.0 0.00 0.00 0.00 92 1011.2
20260505093642 48 263 0.0 0.0 0.00 0.00 0.00 92 1011.1
20260505093521 48 0.0 0.0 0.00 0.00 0.00 92 1011.3
20260505093139 48 265 0.0 0.0 0.00 0.00 0.00 92 1010.9
20260505092636 48 263 0.0 0.0 0.00 0.00 0.00 92 1011.1
20260505092529 48 278 0.0 1.0 0.00 0.00 0.00 92 1011.2
20260505092135 48 268 0.0 0.0 0.00 0.00 0.00 92 1011.0
20260505091631 48 277 0.0 0.0 0.00 0.00 0.00 92 1010.8
20260505091521 48 253 0.0 1.0 0.00 0.00 0.00 92 1011.1
20260505091130 48 254 1.0 1.0 0.00 0.00 0.00 91 1010.9
20260505090627 48 266 0.0 0.0 0.00 0.00 0.00 91 1010.9
20260505090529 48 0.0 0.0 0.00 0.00 0.00 91 1011.3
20260505090125 48 270 0.0 0.0 0.00 0.00 0.00 91 1010.9
20260505085622 48 264 0.0 0.0 0.00 0.00 0.00 91 1010.8
20260505085521 48 0.0 0.0 0.00 0.00 0.00 91 1011.1
20260505085120 48 261 0.0 0.0 0.00 0.00 0.00 91 1010.8
20260505084618 48 263 0.0 0.0 0.00 0.00 0.00 91 1010.8
20260505084529 48 0.0 0.0 0.00 0.00 0.00 91 1011.1
20260505084116 48 263 0.0 0.0 0.00 0.00 0.00 91 1010.8
20260505083613 48 261 0.0 0.0 0.00 0.00 0.00 90 1011.0
20260505083521 48 0.0 0.0 0.00 0.00 0.00 90 1011.1
20260505083109 48 262 0.0 0.0 0.00 0.00 0.00 90 1010.8
20260505082605 48 266 0.0 0.0 0.00 0.00 0.00 90 1010.9
20260505082529 48 0.0 0.0 0.00 0.00 0.00 90 1011.1
20260505082103 48 263 0.0 0.0 0.00 0.00 0.00 90 1010.9
20260505081559 49 282 0.0 0.0 0.00 0.00 0.00 90 1010.9
20260505081522 49 287 0.0 1.0 0.00 0.00 0.00 90 1011.1
20260505081056 49 265 0.0 0.0 0.00 0.00 0.00 90 1010.8
20260505080552 49 267 0.0 0.0 0.00 0.00 0.00 89 1011.0
20260505080529 49 0.0 0.0 0.00 0.00 0.00 89 1011.1
20260505080049 49 261 0.0 0.0 0.00 0.00 0.00 89 1010.9
20260505075601 49 0.0 0.0 0.00 0.00 0.00 89 1011.2
20260505075544 49 264 0.0 0.0 0.00 0.00 0.00 89 1011.0
20260505075042 49 266 0.0 0.0 0.00 0.00 0.00 89 1011.0
20260505074538 49 261 0.0 0.0 0.00 0.00 0.00 88 1010.9
20260505074529 49 0.0 0.0 0.00 0.00 0.00 88 1011.2
20260505074036 49 261 0.0 0.0 0.00 0.00 0.00 88 1011.0
20260505073533 49 263 0.0 0.0 0.00 0.00 0.00 88 1011.0
20260505073521 49 0.0 0.0 0.00 0.00 0.00 88 1011.2
20260505073032 49 269 0.0 0.0 0.00 0.00 0.00 88 1010.8
20260505072530 49 0.0 0.0 0.00 0.00 0.00 87 1011.2
20260505072527 49 262 0.0 0.0 0.00 0.00 0.00 87 1010.8
20260505072023 50 265 0.0 0.0 0.00 0.00 0.00 87 1011.0
20260505071521 50 0.0 0.0 0.00 0.00 0.00 87 1011.0
20260505071519 50 262 0.0 0.0 0.00 0.00 0.00 87 1010.7
20260505071018 50 265 0.0 0.0 0.00 0.00 0.00 87 1010.8
20260505070609 50 0.0 0.0 0.00 0.00 0.00 86 1011.1
20260505070514 50 265 0.0 0.0 0.00 0.00 0.00 87 1010.9
20260505070010 50 264 0.0 0.0 0.00 0.00 0.00 86 1010.9
20260505065522 50 0.0 0.0 0.00 0.00 0.00 86 1011.1
20260505065506 50 264 0.0 0.0 0.00 0.00 0.00 86 1010.8
20260505065003 50 282 0.0 0.0 0.00 0.00 0.00 86 1010.9
20260505064529 50 0.0 0.0 0.00 0.00 0.00 86 1010.9
20260505064500 50 262 0.0 0.0 0.00 0.00 0.00 86 1010.6
20260505063958 50 265 0.0 0.0 0.00 0.00 0.00 85 1010.7
20260505063521 51 0.0 0.0 0.00 0.00 0.00 85 1011.1
20260505063455 50 264 0.0 0.0 0.00 0.00 0.00 85 1011.0
20260505062951 51 264 0.0 0.0 0.00 0.00 0.00 84 1010.8
20260505062550 51 0.0 0.0 0.00 0.00 0.00 83 1011.3
20260505062448 51 264 0.0 0.0 0.00 0.00 0.00 84 1011.0
20260505061945 51 264 0.0 0.0 0.00 0.00 0.00 83 1010.9
20260505061521 51 0.0 0.0 0.00 0.00 0.00 82 1011.3
20260505061443 51 264 0.0 0.0 0.00 0.00 0.00 82 1011.0
20260505060940 51 263 0.0 0.0 0.00 0.00 0.00 82 1011.1
20260505060549 52 0.0 0.0 0.00 0.00 0.00 81 1011.3
20260505060437 52 261 0.0 0.0 0.00 0.00 0.00 81 1010.9
20260505055933 52 261 0.0 0.0 0.00 0.00 0.00 80 1011.0
20260505055521 53 0.0 0.0 0.00 0.00 0.00 80 1011.3
20260505055430 53 260 0.0 0.0 0.00 0.00 0.00 80 1010.9
20260505054926 53 262 0.0 0.0 0.00 0.00 0.00 79 1011.1
20260505054529 53 0.0 0.0 0.00 0.00 0.00 79 1011.3
20260505054424 53 258 0.0 0.0 0.00 0.00 0.00 79 1010.9
20260505053922 53 258 0.0 0.0 0.00 0.00 0.00 79 1011.2
20260505053521 53 0.0 0.0 0.00 0.00 0.00 80 1011.4
20260505053418 53 258 0.0 0.0 0.00 0.00 0.00 80 1011.1
20260505052915 53 260 0.0 0.0 0.00 0.00 0.00 80 1011.4
20260505052530 52 0.0 0.0 0.00 0.00 0.00 81 1011.5
20260505052412 52 258 0.0 0.0 0.00 0.00 0.00 81 1011.3
20260505051910 52 259 0.0 0.0 0.00 0.00 0.00 81 1011.3
20260505051522 52 0.0 0.0 0.00 0.00 0.00 81 1011.6
20260505051407 52 260 0.0 0.0 0.00 0.00 0.00 81 1011.4
20260505050905 52 265 0.0 0.0 0.00 0.00 0.00 80 1011.3
20260505050530 52 0.0 0.0 0.00 0.00 0.00 80 1011.6
20260505050403 52 264 0.0 0.0 0.00 0.00 0.00 80 1011.3
20260505041522 54 0.0 0.0 0.00 0.00 0.00 74 1011.6
20260505041330 54 263 0.0 0.0 0.00 0.00 0.00 74 1011.4
20260505040827 54 263 0.0 0.0 0.00 0.00 0.00 74 1011.4
20260505040530 54 0.0 0.0 0.00 0.00 0.00 73 1011.7
20260505040325 54 268 0.0 0.0 0.00 0.00 0.00 73 1011.3
20260505035821 55 264 0.0 0.0 0.00 0.00 0.00 73 1011.4
20260505035542 55 0.0 0.0 0.00 0.00 0.00 72 1011.7
20260505035317 55 281 0.0 0.0 0.00 0.00 0.00 72 1011.4
20260505034815 55 264 0.0 0.0 0.00 0.00 0.00 71 1011.5
20260505034550 56 0.0 0.0 0.00 0.00 0.00 70 1011.6
20260505034311 56 260 0.0 0.0 0.00 0.00 0.00 70 1011.4
20260505033808 56 267 0.0 0.0 0.00 0.00 0.00 69 1011.4
20260505033522 56 0.0 0.0 0.00 0.00 0.00 68 1011.7
20260505033305 57 259 0.0 0.0 0.00 0.00 0.00 68 1011.5
20260505032804 57 259 0.0 0.0 0.00 0.00 0.00 67 1011.5
20260505032530 57 275 0.0 1.0 0.00 0.00 0.00 66 1011.7
20260505032259 57 267 0.0 0.0 0.00 0.00 0.00 66 1011.5
20260505031756 58 272 0.0 1.0 0.00 0.00 0.00 65 1011.3
20260505031522 58 277 0.0 1.0 0.00 0.00 0.00 64 1011.8
20260505031253 58 264 0.0 0.0 0.00 0.00 0.00 64 1011.6
20260505030750 59 265 0.0 0.0 0.00 0.00 0.00 62 1011.4
20260505030530 59 0.0 0.0 0.00 0.00 0.00 61 1011.8
20260505030246 59 268 0.0 0.0 0.00 0.00 0.00 61 1011.6
20260505025742 60 257 0.0 0.0 0.00 0.00 0.00 59 1011.4
20260505025522 60 0.0 0.0 0.00 0.00 0.00 58 1011.7
20260505025240 60 263 0.0 0.0 0.00 0.00 0.00 58 1011.3
20260505024738 61 263 0.0 0.0 0.00 0.00 0.00 56 1011.4
20260505024530 61 254 0.0 1.0 0.00 0.00 0.00 55 1011.7
20260505024235 62 268 0.0 0.0 0.00 0.00 0.00 55 1011.6
20260505023732 62 256 0.0 0.0 0.00 0.00 0.00 54 1011.3
20260505023522 63 249 0.0 2.0 0.00 0.00 0.00 53 1011.7
20260505023230 63 258 0.0 0.0 0.00 0.00 0.00 53 1011.3
20260505022727 63 259 0.0 0.0 0.00 0.00 0.00 52 1011.6
20260505022530 63 245 1.0 2.0 0.00 0.00 0.00 52 1011.8
20260505022224 63 254 1.0 1.0 0.00 0.00 0.00 52 1011.4
20260505021720 63 243 1.0 1.0 0.00 0.00 0.00 52 1011.5
20260505021522 63 240 2.0 5.0 0.00 0.00 0.00 51 1011.9
20260505021217 63 247 1.0 2.0 0.00 0.00 0.00 50 1011.7
20260505020713 62 232 2.0 2.0 0.00 0.00 0.00 51 1011.5
20260505020530 63 255 0.0 1.0 0.00 0.00 0.00 49 1011.8
20260505020208 63 250 0.0 0.0 0.00 0.00 0.00 49 1011.5
20260505015706 62 258 0.0 0.0 0.00 0.00 0.00 48 1011.4
20260505015522 63 254 0.0 1.0 0.00 0.00 0.00 48 1011.8
20260505015203 63 252 0.0 0.0 0.00 0.00 0.00 48 1011.5
20260505014700 64 256 0.0 0.0 0.00 0.00 0.00 45 1011.2
20260505014530 65 0.0 0.0 0.00 0.00 0.00 44 1011.7
20260505014157 65 253 0.0 0.0 0.00 0.00 0.00 43 1011.6
20260505013654 65 249 1.0 1.0 0.00 0.00 0.00 42 1011.4
20260505013522 66 249 0.0 2.0 0.00 0.00 0.00 42 1011.6
20260505013151 66 249 0.0 0.0 0.00 0.00 0.00 42 1011.2
20260505012649 66 260 1.0 1.0 0.00 0.00 0.00 41 1011.3
20260505012530 66 238 1.0 5.0 0.00 0.00 0.00 41 1011.4
20260505012146 66 241 1.0 1.0 0.00 0.00 0.00 42 1011.2
20260505011642 67 251 0.0 0.0 0.00 0.00 0.00 41 1011.0
20260505011522 67 247 1.0 5.0 0.00 0.00 0.00 41 1011.3
20260505011139 67 248 0.0 1.0 0.00 0.00 0.00 41 1011.0
20260505010639 67 229 1.0 1.0 0.00 0.00 0.00 40 1010.9
20260505010530 67 240 1.0 3.0 0.00 0.00 0.00 40 1011.0
20260505010137 67 237 2.0 2.0 0.00 0.00 0.00 40 1010.8
20260505005632 68 258 1.0 2.0 0.00 0.00 0.00 39 1010.7
20260505005522 67 232 2.0 6.0 0.00 0.00 0.00 39 1011.0
20260505005130 68 247 1.0 2.0 0.00 0.00 0.00 39 1010.9
20260505004627 68 256 0.0 0.0 0.00 0.00 0.00 39 1010.5
20260505004550 68 236 2.0 5.0 0.00 0.00 0.00 39 1010.8
20260505004123 68 243 2.0 2.0 0.00 0.00 0.00 39 1010.5
20260505003621 68 231 5.0 6.0 0.00 0.00 0.00 39 1010.4
20260505003522 68 244 2.0 6.0 0.00 0.00 0.00 39 1010.7
20260505003118 68 234 2.0 2.0 0.00 0.00 0.00 38 1010.5
20260505002614 68 243 2.0 2.0 0.00 0.00 0.00 39 1010.2
20260505002530 68 235 2.0 7.0 0.00 0.00 0.00 39 1010.5
20260505002113 68 259 0.0 1.0 0.00 0.00 0.00 39 1010.2
20260505001609 69 242 2.0 2.0 0.00 0.00 0.00 38 1010.1
20260505001522 69 236 2.0 6.0 0.00 0.00 0.00 37 1010.4
20260505001107 69 220 4.0 5.0 0.00 0.00 0.00 37 1010.3
20260505000604 69 225 2.0 3.0 0.00 0.00 0.00 37 1010.0
20260505000530 70 230 3.0 9.0 0.00 0.00 0.00 36 1010.1
20260504235558 69 224 5.0 7.0 0.00 0.00 0.00 36 1009.7
20260504235522 69 244 2.0 5.0 0.00 0.00 0.00 37 1010.0
20260504235054 70 255 1.0 2.0 0.00 0.00 0.00 37 1009.8
20260504234551 70 256 3.0 5.0 0.00 0.00 0.00 36 1009.6
20260504234049 70 254 0.0 0.0 0.00 0.00 0.00 36 1009.5
20260504233543 71 246 5.0 7.0 0.00 0.00 0.00 35 1009.5
20260504233523 71 239 6.0 16.0 0.00 0.00 0.00 35 1009.8
20260504233041 71 248 7.0 11.0 0.00 0.00 0.00 35 1009.5
20260504232538 71 210 4.0 5.0 0.00 0.00 0.00 35 1009.3
20260504232531 71 244 3.0 6.0 0.00 0.00 0.00 34 1009.6
20260504232036 71 263 4.0 5.0 0.00 0.00 0.00 34 1009.3
20260504231532 72 233 4.0 5.0 0.00 0.00 0.00 34 1009.2
20260504231522 72 238 4.0 10.0 0.00 0.00 0.00 34 1009.5
20260504231028 72 246 3.0 3.0 0.00 0.00 0.00 34 1009.1
20260504230530 72 246 3.0 6.0 0.00 0.00 0.00 33 1009.4
20260504230525 72 236 3.0 3.0 0.00 0.00 0.00 33 1009.3
20260504230024 72 244 3.0 5.0 0.00 0.00 0.00 33 1009.2
20260504225522 72 247 4.0 9.0 0.00 0.00 0.00 33 1009.5
20260504225520 72 243 5.0 7.0 0.00 0.00 0.00 33 1009.3
20260504225017 72 255 1.0 1.0 0.00 0.00 0.00 34 1009.1
20260504224530 73 251 3.0 6.0 0.00 0.00 0.00 32 1009.4
20260504224514 73 239 3.0 3.0 0.00 0.00 0.00 32 1009.1
20260504224011 73 243 3.0 3.0 0.00 0.00 0.00 32 1009.3
20260504223522 73 279 4.0 9.0 0.00 0.00 0.00 32 1009.4
20260504223508 73 310 5.0 7.0 0.00 0.00 0.00 32 1009.1
20260504223004 72 316 3.0 3.0 0.00 0.00 0.00 32 1009.0
20260504222531 73 236 5.0 11.0 0.00 0.00 0.00 32 1009.4
20260504222501 73 243 10.0 13.0 0.00 0.00 0.00 32 1009.2
20260504221958 73 212 5.0 9.0 0.00 0.00 0.00 32 1009.4
20260504221522 73 248 4.0 8.0 0.00 0.00 0.00 32 1009.5
20260504221455 73 260 2.0 2.0 0.00 0.00 0.00 32 1009.3
20260504220952 73 238 5.0 5.0 0.00 0.00 0.00 32 1009.2
20260504220530 73 238 5.0 10.0 0.00 0.00 0.00 32 1009.6
20260504220448 73 233 10.0 11.0 0.00 0.00 0.00 31 1009.3
20260504215945 73 252 3.0 3.0 0.00 0.00 0.00 31 1009.4
20260504215522 73 246 5.0 13.0 0.00 0.00 0.00 31 1009.7
20260504215442 73 241 3.0 5.0 0.00 0.00 0.00 32 1009.5
20260504214939 73 217 8.0 9.0 0.00 0.00 0.00 31 1009.5
20260504214531 74 265 3.0 8.0 0.00 0.00 0.00 31 1009.8
20260504214435 74 262 4.0 7.0 0.00 0.00 0.00 31 1009.5
20260504213932 74 247 8.0 9.0 0.00 0.00 0.00 30 1009.5
20260504213522 73 259 4.0 10.0 0.00 0.00 0.00 31 1009.8
20260504213428 74 257 3.0 5.0 0.00 0.00 0.00 29 1009.7
20260504212926 73 236 3.0 5.0 0.00 0.00 0.00 31 1009.7
20260504212530 73 237 5.0 13.0 0.00 0.00 0.00 31 1009.9
20260504212421 74 218 7.0 9.0 0.00 0.00 0.00 30 1009.6
20260504211919 74 239 5.0 6.0 0.00 0.00 0.00 31 1009.7
20260504211522 73 254 4.0 9.0 0.00 0.00 0.00 31 1010.0
20260504211415 73 314 4.0 6.0 0.00 0.00 0.00 30 1009.7
20260504210912 72 232 5.0 8.0 0.00 0.00 0.00 32 1009.6
20260504210531 73 268 4.0 10.0 0.00 0.00 0.00 31 1010.0
20260504210409 73 277 5.0 7.0 0.00 0.00 0.00 31 1009.7
20260504205907 74 215 7.0 8.0 0.00 0.00 0.00 30 1009.7
20260504205522 72 232 6.0 11.0 0.00 0.00 0.00 31 1010.0
20260504205404 73 250 5.0 6.0 0.00 0.00 0.00 31 1009.8
20260504204902 72 196 4.0 6.0 0.00 0.00 0.00 32 1009.5
20260504204530 72 257 3.0 9.0 0.00 0.00 0.00 32 1010.0
20260504204400 72 240 5.0 6.0 0.00 0.00 0.00 32 1009.8
20260504203900 71 260 1.0 1.0 0.00 0.00 0.00 32 1009.6
20260504203531 72 234 3.0 8.0 0.00 0.00 0.00 32 1009.9
20260504203356 72 237 7.0 10.0 0.00 0.00 0.00 32 1009.6
20260504202852 72 254 2.0 6.0 0.00 0.00 0.00 32 1009.6
20260504202551 72 260 4.0 9.0 0.00 0.00 0.00 31 1009.9
20260504202349 72 307 5.0 7.0 0.00 0.00 0.00 31 1009.7
20260504201845 73 270 2.0 5.0 0.00 0.00 0.00 30 1009.9
20260504201523 73 239 5.0 11.0 0.00 0.00 0.00 30 1010.1
20260504201343 73 250 5.0 7.0 0.00 0.00 0.00 29 1009.7
20260504200840 73 206 9.0 13.0 0.00 0.00 0.00 30 1009.9
20260504200531 73 274 4.0 9.0 0.00 0.00 0.00 30 1010.1
20260504200337 73 24 3.0 3.0 0.00 0.00 0.00 30 1009.9
20260504195833 72 229 7.0 9.0 0.00 0.00 0.00 30 1010.0
20260504195603 73 245 4.0 14.0 0.00 0.00 0.00 30 1010.3
20260504195329 73 254 4.0 6.0 0.00 0.00 0.00 30 1010.1
20260504194826 74 265 2.0 3.0 0.00 0.00 0.00 30 1010.0
20260504194531 73 239 4.0 9.0 0.00 0.00 0.00 30 1010.4
20260504194322 73 284 4.0 6.0 0.00 0.00 0.00 31 1010.1
20260504193818 72 254 4.0 5.0 0.00 0.00 0.00 30 1010.2
20260504193523 73 252 5.0 13.0 0.00 0.00 0.00 31 1010.4
20260504193316 73 212 9.0 13.0 0.00 0.00 0.00 31 1010.2
20260504192814 73 255 2.0 2.0 0.00 0.00 0.00 32 1010.2
20260504192531 73 255 4.0 9.0 0.00 0.00 0.00 31 1010.4
20260504192312 73 236 7.0 9.0 0.00 0.00 0.00 31 1010.0
20260504191810 73 252 3.0 5.0 0.00 0.00 0.00 30 1010.1
20260504191523 73 267 3.0 11.0 0.00 0.00 0.00 31 1010.6
20260504191307 73 253 6.0 8.0 0.00 0.00 0.00 31 1010.3
20260504190803 72 261 5.0 6.0 0.00 0.00 0.00 32 1010.5
20260504190531 72 244 6.0 15.0 0.00 0.00 0.00 31 1010.8
20260504190259 72 270 9.0 11.0 0.00 0.00 0.00 31 1010.6
20260504185755 71 226 8.0 11.0 0.00 0.00 0.00 33 1010.5
20260504185542 72 238 6.0 15.0 0.00 0.00 0.00 32 1011.0
20260504185253 72 246 7.0 8.0 0.00 0.00 0.00 33 1010.6
20260504184749 71 229 2.0 3.0 0.00 0.00 0.00 32 1010.6
20260504184531 72 288 6.0 13.0 0.00 0.00 0.00 31 1011.1
20260504184244 72 333 7.0 9.0 0.00 0.00 0.00 32 1010.9
20260504183740 73 310 6.0 7.0 0.00 0.00 0.00 31 1010.8
20260504183543 72 272 4.0 10.0 0.00 0.00 0.00 32 1011.0
20260504183237 72 273 3.0 5.0 0.00 0.00 0.00 32 1010.6
20260504182736 71 287 2.0 2.0 0.00 0.00 0.00 32 1010.8
20260504182531 72 271 5.0 14.0 0.00 0.00 0.00 32 1011.2
20260504182232 72 268 7.0 8.0 0.00 0.00 0.00 32 1011.0
20260504181730 71 46 3.0 5.0 0.00 0.00 0.00 31 1010.8
20260504181523 71 243 5.0 10.0 0.00 0.00 0.00 32 1011.3
20260504181227 70 245 3.0 5.0 0.00 0.00 0.00 32 1011.0
20260504180726 71 223 10.0 14.0 0.00 0.00 0.00 32 1011.1
20260504180532 71 261 5.0 14.0 0.00 0.00 0.00 32 1011.4
20260504180225 71 282 1.0 3.0 0.00 0.00 0.00 33 1011.1
20260504175722 71 243 2.0 3.0 0.00 0.00 0.00 33 1011.2
20260504175523 71 266 3.0 8.0 0.00 0.00 0.00 32 1011.6
20260504175218 71 290 3.0 3.0 0.00 0.00 0.00 33 1011.3
20260504174716 71 277 2.0 2.0 0.00 0.00 0.00 32 1011.3
20260504174611 70 253 5.0 13.0 0.00 0.00 0.00 33 1011.7
20260504174214 70 220 5.0 6.0 0.00 0.00 0.00 32 1011.3
20260504173710 70 310 9.0 11.0 0.00 0.00 0.00 31 1011.7
20260504173523 70 274 4.0 11.0 0.00 0.00 0.00 32 1011.9
20260504173208 70 308 4.0 6.0 0.00 0.00 0.00 32 1011.5
20260504172704 70 253 7.0 14.0 0.00 0.00 0.00 33 1011.8
20260504172531 70 242 5.0 14.0 0.00 0.00 0.00 33 1011.9
20260504172200 69 219 3.0 6.0 0.00 0.00 0.00 34 1011.5
20260504171657 69 238 4.0 6.0 0.00 0.00 0.00 33 1011.7
20260504171531 69 243 5.0 11.0 0.00 0.00 0.00 33 1012.1
20260504171154 69 263 8.0 11.0 0.00 0.00 0.00 32 1012.0
20260504170650 69 259 0.0 1.0 0.00 0.00 0.00 33 1011.8
20260504170531 69 256 5.0 14.0 0.00 0.00 0.00 33 1012.2
20260504170148 71 267 5.0 10.0 0.00 0.00 0.00 32 1012.1
20260504160106 67 195 10.0 14.0 0.00 0.00 0.00 33 1012.8
20260504151033 66 234 9.0 10.0 0.00 0.00 0.00 34 1013.4
20260504150532 64 226 6.0 11.0 0.00 0.00 0.00 36 1013.8
20260504140956 62 226 7.0 10.0 0.00 0.00 0.00 38 1014.1
20260504140535 61 231 5.0 15.0 0.00 0.00 0.00 39 1014.3
20260504140453 61 235 7.0 8.0 0.00 0.00 0.00 38 1014.0
20260504130516 57 235 3.0 8.0 0.00 0.00 0.00 45 1014.8
20260504130418 57 236 2.0 3.0 0.00 0.00 0.00 45 1014.5